• In Austria
  • List of Countries
  • For 7 days
  • Water Temperature
  • Satellite Maps
  • Weather Map
  • News
  • Weather Widgets
  • user-avatar
    Login

    Hourly Weather Bourgoin

    Today, 21 October, Sunday

    Time Temperature Precipitation Wind Pressure Humidity
    00:00 +11°C° 0 mm 1 mps 741 mmHg 92%
    01:00 +10°C° 0 mm 1 mps 741 mmHg 92%
    02:00 +10°C° 0 mm 1 mps 741 mmHg 92%
    03:00 +10°C° 0 mm 1 mps 741 mmHg 93%
    04:00 +10°C° 0 mm 1 mps 741 mmHg 92%
    05:00 +10°C° 0 mm 1 mps 740 mmHg 92%
    06:00 +10°C° 0 mm 1 mps 740 mmHg 91%
    07:00 +11°C° 0 mm 1 mps 740 mmHg 85%
    08:00 +13°C° 0 mm 1 mps 740 mmHg 79%
    09:00 +14°C° 0 mm 2 mps 740 mmHg 73%
    10:00 +16°C° 0 mm 2 mps 739 mmHg 67%
    11:00 +17°C° 0 mm 2 mps 739 mmHg 60%
    12:00 +19°C° 0 mm 3 mps 739 mmHg 54%
    13:00 +19°C° 0 mm 3 mps 738 mmHg 54%
    14:00 +19°C° 0 mm 3 mps 738 mmHg 54%
    15:00 +19°C° 0 mm 4 mps 737 mmHg 54%
    16:00 +17°C° 0 mm 3 mps 737 mmHg 60%
    17:00 +14°C° 0 mm 3 mps 737 mmHg 67%
    18:00 +13°C° 0 mm 3 mps 737 mmHg 74%
    19:00 +13°C° 0 mm 2 mps 738 mmHg 76%
    20:00 +12°C° 0 mm 2 mps 738 mmHg 78%
    21:00 +12°C° 0 mm 2 mps 738 mmHg 79%
    22:00 +10°C° 0 mm 2 mps 738 mmHg 82%
    23:00 +11°C° 0 mm 1 mps 738 mmHg 84%

    Tomorrow, 22 October, Monday

    Time Temperature Precipitation Wind Pressure Humidity
    00:00 +10°C° 0 mm 1 mps 738 mmHg 86%
    01:00 +10°C° 0 mm 1 mps 738 mmHg 87%
    02:00 +9°C° 0 mm 1 mps 738 mmHg 89%
    03:00 +9°C° 0 mm 1 mps 739 mmHg 91%
    04:00 +8°C° 0 mm 1 mps 739 mmHg 92%
    05:00 +8°C° 0 mm 1 mps 739 mmHg 92%
    06:00 +7°C° 0 mm 1 mps 740 mmHg 93%
    07:00 +9°C° 0 mm 1 mps 740 mmHg 85%
    08:00 +11°C° 0 mm 1 mps 740 mmHg 77%
    09:00 +13°C° 0 mm 2 mps 740 mmHg 69%
    10:00 +14°C° 0 mm 2 mps 740 mmHg 62%
    11:00 +14°C° 0 mm 3 mps 740 mmHg 56%
    12:00 +17°C° 0 mm 3 mps 740 mmHg 50%
    13:00 +17°C° 0 mm 3 mps 740 mmHg 49%
    14:00 +17°C° 0 mm 4 mps 740 mmHg 48%
    15:00 +17°C° 0 mm 4 mps 739 mmHg 47%
    16:00 +14°C° 0 mm 4 mps 740 mmHg 53%
    17:00 +12°C° 0 mm 3 mps 740 mmHg 59%
    18:00 +11°C° 0 mm 3 mps 741 mmHg 65%
    19:00 +10°C° 0 mm 3 mps 741 mmHg 68%
    20:00 +10°C° 0 mm 3 mps 741 mmHg 72%
    21:00 +9°C° 0 mm 3 mps 742 mmHg 75%
    22:00 +8°C° 0 mm 2 mps 742 mmHg 78%
    23:00 +8°C° 0 mm 2 mps 742 mmHg 81%

    Day after tomorrow, 23 October, Tuesday

    Time Temperature Precipitation Wind Pressure Humidity
    00:00 +7°C° 0 mm 2 mps 742 mmHg 83%
    01:00 +7°C° 0 mm 2 mps 742 mmHg 86%
    02:00 +7°C° 0 mm 2 mps 742 mmHg 88%
    03:00 +6°C° 0 mm 2 mps 742 mmHg 90%
    04:00 +6°C° 0 mm 2 mps 742 mmHg 91%
    05:00 +6°C° 0 mm 2 mps 742 mmHg 92%
    06:00 +6°C° 0 mm 2 mps 743 mmHg 94%
    07:00 +8°C° 0 mm 2 mps 743 mmHg 87%
    08:00 +9°C° 0 mm 2 mps 743 mmHg 81%
    09:00 +11°C° 0 mm 3 mps 743 mmHg 75%
    10:00 +12°C° 0 mm 3 mps 743 mmHg 69%
    11:00 +13°C° 0 mm 3 mps 743 mmHg 64%
    12:00 +15°C° 0 mm 4 mps 743 mmHg 58%
    13:00 +15°C° 0 mm 4 mps 742 mmHg 58%
    14:00 +15°C° 0 mm 4 mps 742 mmHg 58%
    15:00 +17°C° 0 mm 4 mps 742 mmHg 57%
    16:00 +14°C° 0 mm 4 mps 742 mmHg 63%
    17:00 +12°C° 0 mm 4 mps 742 mmHg 68%
    18:00 +10°C° 0 mm 3 mps 743 mmHg 74%
    19:00 +10°C° 0 mm 3 mps 743 mmHg 74%
    20:00 +9°C° 0 mm 3 mps 743 mmHg 74%
    21:00 +9°C° 0 mm 3 mps 743 mmHg 74%
    22:00 +8°C° 0 mm 3 mps 743 mmHg 74%
    23:00 +8°C° 0 mm 3 mps 743 mmHg 75%

    24 October, Wednesday

    Time Temperature Precipitation Wind Pressure Humidity
    00:00 +7°C° 0 mm 3 mps 743 mmHg 75%
    01:00 +7°C° 0 mm 3 mps 742 mmHg 76%
    02:00 +7°C° 0 mm 3 mps 742 mmHg 77%
    03:00 +7°C° 0 mm 3 mps 742 mmHg 78%
    04:00 +7°C° 0 mm 3 mps 742 mmHg 80%
    05:00 +7°C° 0 mm 3 mps 742 mmHg 81%
    06:00 +7°C° 0 mm 3 mps 741 mmHg 82%
    07:00 +9°C° 0 mm 3 mps 741 mmHg 76%
    08:00 +10°C° 0 mm 4 mps 741 mmHg 70%
    09:00 +12°C° 0 mm 4 mps 741 mmHg 64%
    10:00 +14°C° 0 mm 5 mps 741 mmHg 61%
    11:00 +16°C° 0 mm 5 mps 740 mmHg 58%
    12:00 +19°C° 0 mm 6 mps 740 mmHg 55%
    13:00 +19°C° 0 mm 6 mps 740 mmHg 57%
    14:00 +19°C° 0 mm 6 mps 740 mmHg 59%
    15:00 +19°C° 0 mm 6 mps 739 mmHg 61%
    16:00 +16°C° 0 mm 5 mps 739 mmHg 69%
    17:00 +15°C° 0 mm 5 mps 740 mmHg 76%
    18:00 +13°C° 0 mm 4 mps 740 mmHg 84%
    19:00 +12°C° 0 mm 4 mps 740 mmHg 86%
    20:00 +12°C° 0 mm 4 mps 740 mmHg 88%
    21:00 +11°C° 0 mm 4 mps 740 mmHg 90%
    22:00 +11°C° 0 mm 3 mps 739 mmHg 90%
    23:00 +11°C° 0 mm 3 mps 739 mmHg 90%

    25 October, Thursday

    Time Temperature Precipitation Wind Pressure Humidity
    00:00 +11°C° 0 mm 3 mps 739 mmHg 90%
    01:00 +10°C° 0 mm 3 mps 739 mmHg 91%
    02:00 +10°C° 0 mm 2 mps 739 mmHg 92%
    03:00 +10°C° 0 mm 2 mps 738 mmHg 92%
    04:00 +10°C° 0 mm 2 mps 738 mmHg 92%
    05:00 +10°C° 0 mm 2 mps 738 mmHg 93%
    06:00 +10°C° 0 mm 2 mps 738 mmHg 93%
    07:00 +12°C° 0 mm 2 mps 738 mmHg 87%
    08:00 +13°C° 0 mm 2 mps 738 mmHg 82%
    09:00 +15°C° 0 mm 2 mps 738 mmHg 76%
    10:00 +16°C° 0 mm 2 mps 738 mmHg 70%
    11:00 +17°C° 0 mm 2 mps 738 mmHg 65%
    12:00 +19°C° 0 mm 2 mps 737 mmHg 59%
    13:00 +19°C° 0 mm 2 mps 737 mmHg 60%
    14:00 +19°C° 0 mm 2 mps 737 mmHg 61%
    15:00 +19°C° 0 mm 2 mps 736 mmHg 61%
    16:00 +17°C° 0 mm 2 mps 736 mmHg 70%
    17:00 +15°C° 0 mm 2 mps 736 mmHg 80%
    18:00 +13°C° 0 mm 1 mps 736 mmHg 89%
    19:00 +12°C° 0 mm 1 mps 736 mmHg 89%
    20:00 +12°C° 0 mm 1 mps 736 mmHg 90%
    21:00 +11°C° 0 mm 1 mps 736 mmHg 91%
    22:00 +11°C° 0 mm 1 mps 735 mmHg 90%
    23:00 +11°C° 0 mm 1 mps 735 mmHg 90%

    26 October, Friday

    Time Temperature Precipitation Wind Pressure Humidity
    00:00 +9°C° 0 mm 0 mps 735 mmHg 90%
    01:00 +9°C° 0 mm 0 mps 734 mmHg 89%
    02:00 +10°C° 0 mm 1 mps 734 mmHg 88%
    03:00 +10°C° 0 mm 1 mps 733 mmHg 87%
    04:00 +10°C° 0 mm 1 mps 733 mmHg 86%
    05:00 +10°C° 0 mm 1 mps 733 mmHg 85%
    06:00 +10°C° 0 mm 1 mps 733 mmHg 84%
    07:00 +12°C° 0 mm 2 mps 732 mmHg 76%
    08:00 +14°C° 0 mm 2 mps 732 mmHg 68%
    09:00 +16°C° 0 mm 3 mps 732 mmHg 60%
    10:00 +18°C° 0 mm 3 mps 732 mmHg 55%
    11:00 +20°C° 0 mm 4 mps 731 mmHg 50%
    12:00 +21°C° 0 mm 5 mps 731 mmHg 45%
    13:00 +21°C° 0 mm 5 mps 730 mmHg 48%
    14:00 +21°C° 0 mm 5 mps 729 mmHg 51%
    15:00 +21°C° 0 mm 5 mps 729 mmHg 54%
    16:00 +19°C° 0.1 mm 4 mps 729 mmHg 63%
    17:00 +17°C° 0.1 mm 4 mps 729 mmHg 72%
    18:00 +15°C° 0.1 mm 4 mps 729 mmHg 80%
    19:00 +14°C° 0.4 mm 3 mps 728 mmHg 83%
    20:00 +14°C° 0.4 mm 3 mps 728 mmHg 86%
    21:00 +14°C° 0.4 mm 2 mps 728 mmHg 89%
    22:00 +14°C° 0.5 mm 2 mps 728 mmHg 89%
    23:00 +14°C° 0.5 mm 2 mps 727 mmHg 90%
    Show more